User: anonymous   Login
Location: Bosdarros
(43.2167°N, 0.3667°W)
Time: 01:18:47
(UTC+00:00)
Language:

Cosmos 2344 - Orbit

View from above orbital plane
View from above orbital plane
View from above satellite
View from above satellite

Ground track
Ground track

The orbit data is extracted from the following two-line orbital elements,

1 24827U 97028A   21174.32822750  .00000081  00000-0  15291-2 0  9992
2 24827  63.3247  15.6921 1037628  46.5548 115.5684 11.07965409972913
Epoch (UTC): 23 June 2021 07:52:38
Eccentricity: 0.1037628
inclination: 63.3247°
perigee height: 1239 km
apogee height: 3003 km
right ascension of ascending node: 15.6921°
argument of perigee: 46.5548°
revolutions per day: 11.07965409
mean anomaly at epoch: 115.5684°
orbit number at epoch: 97291

The dashed part of the orbit path shows where the satellite is in the earth's shadow,  

DLR